Location: Plainartige
(45.6866°N, 1.7993°E)
Time: 03:21:00
(UTC+00:00)

BEESAT - Pass Details

Date: 28 June 2022
Orbit: 700 x 706 km, 98.6° (Epoch: 11 August)

Event Time Altitude Azimuth Distance (km) Brightness Sun altitude
Rises 21:21:09 0° 4° (N) 3,104 ? -12.6°
Reaches altitude 10° 21:23:39 10° 353° (N) 2,182 ? -12.9°
Maximum altitude 21:27:42 28° 295° (WNW) 1,311 ? -13.3°
Drops below altitude 10° 21:31:43 10° 237° (WSW) 2,173 ? -13.7°
Sets 21:34:13 0° 226° (SW) 3,087 ? -13.9°
